[[{"header":{"parameterUnit":"m.s-1","parameterCategory":1,"la1":30.2991,"la2":30.254,"lo1":-89.0895,"lo2":-89.0444,"dy":0.0017,"dx":0.0017,"nx":28,"ny":28,"refTime":"2023-10-15T09:00:00:Z","depth":0,"parameterNumber":2,"parameterNumberName":"U-component_of_WINDS"},"data":[0,0,0,0,0,0,0,0,0,0,0,0,0,0,0,0,0,0,0,0,0,0,0,0,0,0,0,0,0,0,0,0,0,0,0,0,0,0,0,0,0,0,0,0,0,0,0,0,0,0,0,0,0,0,0,0,0,0,2.097,2.097,0,2.0951,2.0951,2.095,2.0939,2.0939,2.0939,2.0939,2.0917,2.0916,2.0916,0,0,0,0,0,0,0,0,0,0,0,0,0,2.0996,2.0995,2.097,2.097,2.097,2.0951,2.0951,2.095,2.0939,2.0939,2.0939,2.0939,2.0917,2.0916,2.0916,0,0,0,0,0,0,0,0,0,0,0,0,0,2.0981,2.0995,2.097,2.0962,2.0961,2.0951,2.0951,2.095,2.0939,2.0939,2.0939,2.0939,2.0917,2.0916,2.0916,2.0912,0,0,2.0913,2.0913,0,0,0,0,0,0,0,0,2.0982,2.098,2.0963,2.0963,2.0961,2.0947,2.0951,2.0937,2.0939,2.0947,2.0939,2.0939,2.0927,2.0925,2.0922,2.0911,2.091,2.0913,2.0913,2.0912,2.0912,0,0,0,0,0,0,0,2.0983,2.0981,2.0962,2.0963,2.0962,2.0959,2.0956,2.0949,2.0938,2.0947,2.0946,2.0944,2.0926,2.0923,2.0921,2.0909,2.0913,2.0912,2.0912,2.0911,2.0894,2.0894,0,0,0,0,0,0,2.0986,2.0982,2.0963,2.0962,2.0972,2.0958,2.0956,2.0952,2.0938,2.0936,2.0944,2.0943,2.0924,2.0922,2.092,2.0915,2.0912,2.0911,2.0911,2.0894,2.0894,2.0894,0,0,0,0,0,0,2.0986,2.0984,2.0964,2.0972,2.0969,2.0958,2.0954,2.0952,2.0948,2.0936,2.0933,2.0942,2.0924,2.0921,2.0914,2.0914,2.0911,2.091,2.0894,2.0894,2.0894,2.0903,0,0,0,0,0,0,2.0987,2.0984,2.0983,2.0972,2.0969,2.0958,2.0953,2.0951,2.0947,2.0946,2.0933,2.0931,2.0924,2.0915,2.0913,2.0912,2.091,2.0894,2.0894,2.0894,2.0903,2.0903,2.0904,0,0,0,0,0,2.0988,2.0986,2.0983,2.0981,2.0967,2.0959,2.0957,2.0949,2.0947,2.0945,2.0937,2.0932,2.0914,2.0915,2.0912,2.0911,2.0894,2.0894,2.0894,2.0902,2.0903,2.0904,0,0,0,0,0,0,2.0997,2.0984,2.0981,2.0975,2.0968,2.0957,2.0954,2.095,2.0942,2.0942,2.0931,2.0929,2.0922,2.0916,2.0917,2.0906,2.0903,2.0903,2.0911,2.0911,2.0912,2.0913,2.0909,0,0,0,0,0,2.0998,2.0993,2.0982,2.0978,2.0975,2.0965,2.0961,2.0956,2.0948,2.0944,2.0936,2.0928,2.092,2.0916,2.0908,2.0902,2.0899,2.09,2.0901,2.0901,2.0901,2.0897,2.0897,2.0894,2.0894,2.0894,0,0,2.1001,2.0993,2.0991,2.098,2.0974,2.0968,2.0963,2.0957,2.0953,2.0943,2.0936,2.093,2.0919,2.0913,2.0909,2.0907,2.0901,2.0901,2.0902,2.0901,2.0897,2.0898,2.0898,2.0894,2.0894,2.0894,0,0,2.1003,2.0997,2.0993,2.0987,2.0978,2.0972,2.0971,2.096,2.0956,2.0948,2.0941,2.0935,2.0923,2.0916,2.0911,2.0911,2.0905,2.0909,2.0912,2.0908,2.0909,2.0909,2.0909,2.0909,2.0908,2.0908,2.0909,0,2.1007,2.0999,2.0991,2.0986,2.0981,2.0974,2.0969,2.0964,2.0952,2.0949,2.0947,2.0932,2.0924,2.0916,2.0916,2.0912,2.0911,2.091,2.0909,2.0909,2.0909,2.0909,2.0909,2.0909,2.0909,2.0909,2.0909,0,2.1004,2.0999,2.0996,2.0987,2.0982,2.0977,2.0968,2.0964,2.0959,2.0953,2.0946,2.0937,2.0927,2.0925,2.092,2.0916,2.0915,2.0911,2.0908,2.091,2.091,2.091,2.091,2.0909,2.0909,2.0909,0,0,2.101,2.0997,2.0996,2.0992,2.0981,2.0977,2.0972,2.0963,2.096,2.0952,2.0947,2.0937,2.0934,2.0928,2.0922,2.0919,2.092,2.0916,2.0916,2.0917,2.0915,2.0917,2.0917,2.0916,2.0916,2.0916,2.0915,0,2.101,2.1002,2.0995,2.0988,2.0983,2.0976,2.0971,2.0964,2.0958,2.0952,2.0945,2.0938,2.0935,2.0931,2.0928,2.092,2.0919,2.092,2.0911,2.0911,2.0913,2.0917,2.0919,2.0919,2.0915,2.0915,2.0915,0,2.1009,2.1003,2.0996,2.0986,2.0984,2.098,2.0972,2.0967,2.0958,2.0954,2.0948,2.0942,2.0936,2.0934,2.0925,2.0926,2.0921,2.0917,2.0917,2.0915,2.0913,2.0915,2.0919,2.0919,2.0915,2.0915,2.0915,0,2.1014,2.1004,2.0998,2.0995,2.0984,2.0981,2.0976,2.0968,2.0963,2.0956,2.0953,2.0945,2.094,2.0934,2.0926,2.0925,2.0918,2.0914,2.0913,2.0914,2.0912,2.0912,2.0915,2.091,2.091,2.091,2.091,0,2.1015,2.1011,2.1001,2.0997,2.0992,2.0985,2.098,2.0974,2.0967,2.0962,2.0955,2.095,2.094,2.0934,2.0928,2.0921,2.0919,2.0915,2.0913,2.0916,2.0916,2.0912,2.0912,2.091,2.091,2.091,2.091,0,2.1019,2.1013,2.1006,2.0996,2.0994,2.0991,2.0982,2.0978,2.0972,2.0966,2.0964,2.0954,2.0947,2.0938,2.0928,2.0923,2.0917,2.0915,2.092,2.0919,2.0918,2.0919,2.0918,2.0918,2.0914,2.0914,2.0914,0,2.102,2.1017,2.1007,2.1004,2.0999,2.0993,2.0989,2.0981,2.0977,2.0967,2.0965,2.0957,2.095,2.0939,2.093,2.0922,2.0919,2.092,2.0918,2.092,2.0919,2.0919,2.0919,2.092,2.092,2.092,2.092,0,2.1022,2.1019,2.1013,2.1006,2.1001,2.0995,2.0989,2.0986,2.0977,2.0973,2.0965,2.096,2.095,2.0942,2.0933,2.0928,2.0922,2.0921,2.0921,2.0922,2.0926,2.0924,2.0921,2.0921,2.0921,2.0921,2.0921,2.0921,2.1024,2.1021,2.1014,2.1008,2.1002,2.0997,2.0993,2.0987,2.0981,2.0972,2.0968,2.0961,2.0952,2.094,2.0934,2.0928,2.0926,2.0926,2.0925,2.0925,2.0926,2.0927,2.0927,2.0927,2.0927,2.0927,2.0927,0,2.1026,2.1021,2.1015,2.1007,2.1002,2.0999,2.0991,2.0987,2.0981,2.0974,2.0968,2.096,2.0952,2.0944,2.0936,2.0933,2.093,2.0931,2.093,2.0929,2.0928,2.0929,2.0933,2.0933,2.0933,2.0933,2.0933,2.0933,2.1026,2.102,2.1016,2.1008,2.1003,2.0996,2.0993,2.0987,2.0982,2.0973,2.0967,2.0962,2.0954,2.0945,2.0938,2.0936,2.0933,2.0934,2.0931,2.093,2.0929,2.0929,2.093,2.0934,2.0934,2.0933,2.0933,2.0933]},{"header":{"parameterUnit":"m.s-1","parameterCategory":1,"la1":30.2991,"la2":30.254,"lo1":-89.0895,"lo2":-89.0444,"dy":0.0017,"dx":0.0017,"nx":28,"ny":28,"refTime":"2023-10-15T09:00:00:Z","depth":0,"parameterNumber":3,"parameterNumberName":"V-component_of_WINDS"},"data":[0,0,0,0,0,0,0,0,0,0,0,0,0,0,0,0,0,0,0,0,0,0,0,0,0,0,0,0,0,0,0,0,0,0,0,0,0,0,0,0,0,0,0,0,0,0,0,0,0,0,0,0,0,0,0,0,0,0,-6.8142,-6.8144,0,-6.8351,-6.8354,-6.8356,-6.8268,-6.8263,-6.8258,-6.8254,-6.8463,-6.8473,-6.8483,0,0,0,0,0,0,0,0,0,0,0,0,0,-6.7662,-6.7672,-6.8142,-6.8144,-6.8147,-6.8351,-6.8354,-6.8356,-6.8269,-6.8263,-6.8257,-6.8251,-6.8459,-6.8472,-6.8484,0,0,0,0,0,0,0,0,0,0,0,0,0,-6.7871,-6.7675,-6.8141,-6.8128,-6.8129,-6.835,-6.8354,-6.8357,-6.8271,-6.8263,-6.8256,-6.8249,-6.8455,-6.847,-6.8486,-6.873,0,0,-6.8532,-6.8539,0,0,0,0,0,0,0,0,-6.7859,-6.7889,-6.8128,-6.813,-6.8131,-6.8276,-6.8261,-6.8482,-6.8272,-6.8217,-6.8254,-6.8245,-6.8406,-6.8425,-6.8481,-6.874,-6.8749,-6.8534,-6.8543,-6.855,-6.8554,0,0,0,0,0,0,0,-6.7845,-6.7879,-6.8224,-6.8131,-6.8133,-6.811,-6.8132,-6.8303,-6.8351,-6.8221,-6.8215,-6.8241,-6.8406,-6.8466,-6.8485,-6.8752,-6.8533,-6.8547,-6.8556,-6.8562,-6.9224,-6.9231,0,0,0,0,0,0,-6.7831,-6.7868,-6.8218,-6.8231,-6.7974,-6.8125,-6.8149,-6.8237,-6.8349,-6.8359,-6.8248,-6.8237,-6.8444,-6.8467,-6.8492,-6.8788,-6.855,-6.8564,-6.8573,-6.9215,-6.9225,-6.9234,0,0,0,0,0,0,-6.7821,-6.7863,-6.8209,-6.8048,-6.809,-6.8141,-6.8241,-6.8245,-6.8305,-6.8369,-6.8377,-6.8301,-6.8439,-6.8471,-6.8672,-6.8793,-6.8571,-6.8585,-6.9205,-6.9218,-6.923,-6.938,0,0,0,0,0,0,-6.7807,-6.786,-6.7954,-6.8051,-6.8099,-6.8388,-6.8248,-6.8255,-6.8333,-6.832,-6.8421,-6.843,-6.8435,-6.865,-6.8688,-6.8811,-6.8597,-6.9195,-6.9211,-6.9226,-6.9364,-6.9396,-6.9423,0,0,0,0,0,-6.7791,-6.7987,-6.796,-6.8002,-6.8219,-6.8395,-6.8423,-6.8426,-6.8343,-6.8438,-6.8479,-6.8427,-6.8774,-6.8671,-6.8713,-6.8842,-6.9187,-6.9207,-6.9225,-6.9351,-6.9389,-6.9422,0,0,0,0,0,0,-6.7902,-6.7999,-6.797,-6.8204,-6.8292,-6.838,-6.85,-6.8466,-6.8579,-6.8562,-6.856,-6.8583,-6.8792,-6.8837,-6.8721,-6.9086,-6.8968,-6.8996,-6.9049,-6.9086,-6.9115,-6.9101,-6.8609,0,0,0,0,0,-6.7954,-6.809,-6.8167,-6.8366,-6.8412,-6.8449,-6.8525,-6.8521,-6.8611,-6.8648,-6.8703,-6.8792,-6.8921,-6.9005,-6.9127,-6.9369,-6.939,-6.9479,-6.9508,-6.9532,-6.9557,-6.9689,-6.973,-6.9296,-6.9296,-6.9296,0,0,-6.8062,-6.8132,-6.8218,-6.839,-6.8458,-6.8599,-6.8481,-6.8634,-6.8738,-6.867,-6.8866,-6.8909,-6.9008,-6.9231,-6.9332,-6.9275,-6.9681,-6.9556,-6.9574,-6.9586,-6.9713,-6.9754,-6.979,-6.9309,-6.9307,-6.9305,0,0,-6.8331,-6.8398,-6.8572,-6.8643,-6.8748,-6.8771,-6.8813,-6.8907,-6.8934,-6.913,-6.9082,-6.9205,-6.9427,-6.95,-6.9566,-6.9864,-6.9821,-6.9903,-7.0057,-7.0186,-7.022,-7.0251,-7.0358,-7.0397,-6.9927,-6.9927,-6.9928,0,-6.8452,-6.8664,-6.8664,-6.8823,-6.89,-6.8847,-6.9022,-6.909,-6.9229,-6.9283,-6.9217,-6.9496,-6.9558,-6.9799,-6.9872,-6.9926,-6.9974,-6.9892,-7.0216,-7.0246,-7.0274,-7.0377,-7.0417,-6.9937,-6.9936,-6.9935,-6.9934,0,-6.8808,-6.8956,-6.9083,-6.9221,-6.9312,-6.9478,-6.9503,-6.9595,-6.9581,-6.9612,-6.9812,-6.9885,-7.0022,-7.0078,-7.0065,-7.0317,-7.0279,-7.0215,-7.0096,-7.0325,-7.0422,-7.0461,-6.9951,-6.9947,-6.9944,-6.9942,0,0,-6.9155,-6.9292,-6.9339,-6.9401,-6.9513,-6.9627,-6.979,-6.9925,-7.0005,-7.0102,-7.0239,-7.0428,-7.037,-7.0445,-7.044,-7.0554,-7.0787,-7.0475,-7.0478,-7.0532,-7.107,-7.112,-7.1165,-7.0758,-7.0766,-7.0772,-7.1063,0,-6.9434,-6.9723,-6.9728,-6.9993,-7.0129,-7.0081,-7.0223,-7.0306,-7.0339,-7.0458,-7.0492,-7.0628,-7.054,-7.0585,-7.0695,-7.0736,-7.0895,-7.0714,-7.0886,-7.0892,-7.0865,-7.1216,-7.1268,-7.1539,-7.11,-7.1107,-7.1111,0,-6.9799,-6.9911,-7.019,-7.0284,-7.0341,-7.0469,-7.0595,-7.0709,-7.0803,-7.0818,-7.0903,-7.0882,-7.1047,-7.0923,-7.1151,-7.1028,-7.1097,-7.1128,-7.1139,-7.1156,-7.1017,-7.1244,-7.1625,-7.1667,-7.117,-7.1166,-7.1161,0,-7.0027,-7.0246,-7.0442,-7.0497,-7.061,-7.0702,-7.0753,-7.0839,-7.0921,-7.1029,-7.1082,-7.1208,-7.1277,-7.1374,-7.1387,-7.1295,-7.1617,-7.1493,-7.1634,-7.1634,-7.1706,-7.1701,-7.2105,-7.1748,-7.1747,-7.1746,-7.1746,0,-7.034,-7.0513,-7.0546,-7.0667,-7.0859,-7.0862,-7.1052,-7.1095,-7.1173,-7.13,-7.1264,-7.1384,-7.1392,-7.1516,-7.1526,-7.1714,-7.1745,-7.1762,-7.1763,-7.1767,-7.1765,-7.1814,-7.1796,-7.1757,-7.1755,-7.1753,-7.1751,0,-7.0627,-7.0656,-7.0866,-7.0957,-7.0984,-7.1122,-7.1199,-7.1314,-7.1342,-7.1504,-7.1542,-7.1587,-7.173,-7.1752,-7.1919,-7.1926,-7.2152,-7.2132,-7.2122,-7.212,-7.2261,-7.2248,-7.2712,-7.2773,-7.2374,-7.2378,-7.2381,0,-7.0826,-7.0958,-7.1064,-7.1148,-7.1204,-7.1339,-7.1423,-7.1431,-7.1519,-7.1636,-7.1737,-7.1877,-7.1989,-7.222,-7.2266,-7.2394,-7.2378,-7.2532,-7.2397,-7.2397,-7.2383,-7.2376,-7.239,-7.2559,-7.2563,-7.2567,-7.2569,0,-7.1176,-7.1184,-7.1307,-7.1437,-7.1538,-7.1639,-7.1735,-7.1805,-7.1825,-7.1926,-7.2073,-7.216,-7.2332,-7.2472,-7.2598,-7.2649,-7.2614,-7.2611,-7.2651,-7.2657,-7.2647,-7.2657,-7.2195,-7.2601,-7.2598,-7.2596,-7.2594,-7.2593,-7.1427,-7.1543,-7.1636,-7.1775,-7.1847,-7.1938,-7.2051,-7.2094,-7.2218,-7.236,-7.2356,-7.2518,-7.2608,-7.2775,-7.2835,-7.296,-7.291,-7.2968,-7.2983,-7.2997,-7.3012,-7.2625,-7.2983,-7.2982,-7.2981,-7.2981,-7.298,0,-7.1777,-7.1835,-7.1962,-7.2099,-7.2208,-7.2165,-7.2269,-7.2363,-7.2506,-7.2594,-7.2706,-7.2875,-7.301,-7.3068,-7.32,-7.329,-7.3277,-7.3325,-7.3319,-7.3332,-7.3048,-7.3002,-7.3333,-7.3333,-7.3333,-7.3333,-7.3333,-7.3333,-7.1973,-7.2168,-7.2187,-7.2417,-7.2473,-7.2633,-7.2696,-7.2779,-7.285,-7.3041,-7.3154,-7.3191,-7.3267,-7.3405,-7.3527,-7.354,-7.3591,-7.3647,-7.3653,-7.3387,-7.3352,-7.3318,-7.3274,-7.3657,-7.3658,-7.3926,-7.3929,-7.3931]}]]